FTI YMLT-YMMB

Flight info

Callsign FTI
Flight time N/A
Altitude 6000
Route MB
Aircraft PA38/L-SFG/C

Departure

Time 2026-04-20 06:31
Airport Launceston Airport (YMLT)

Arrival

Time N/A
Airport Melbourne Moorabbin Airport (YMMB)
Time Latitude Longitude Altitude Speed Heading
2026-04-20 06:23 -41.54764 147.20994 576 ft 0 kts 147°
2026-04-20 06:27 -41.54805 147.21056 577 ft 16 kts 146°
2026-04-20 06:27 -41.54897 147.21143 575 ft 11 kts 152°
2026-04-20 06:28 -41.54960 147.21260 576 ft 18 kts 55°
2026-04-20 06:28 -41.55026 147.21354 578 ft 18 kts 148°
2026-04-20 06:28 -41.55147 147.21456 580 ft 22 kts 149°
2026-04-20 06:28 -41.55225 147.21537 582 ft 0 kts 115°
2026-04-20 06:29 -41.55228 147.21546 582 ft 5 kts 109°
2026-04-20 06:29 -41.55218 147.21650 584 ft 18 kts 57°
2026-04-20 06:30 -41.55139 147.21646 587 ft 29 kts 323°
2026-04-20 06:30 -41.54829 147.21375 619 ft 69 kts 326°
2026-04-20 06:30 -41.54414 147.21019 829 ft 69 kts 327°
2026-04-20 06:30 -41.54005 147.20684 1051 ft 71 kts 330°
2026-04-20 06:31 -41.53529 147.20567 1278 ft 73 kts
2026-04-20 06:31 -41.53038 147.20674 1531 ft 72 kts
2026-04-20 06:31 -41.52540 147.20752 1740 ft 74 kts
2026-04-20 06:31 -41.52030 147.20811 1956 ft 73 kts
2026-04-20 06:32 -41.51520 147.20900 2156 ft 74 kts
2026-04-20 06:32 -41.51012 147.20997 2359 ft 74 kts
2026-04-20 06:32 -41.50492 147.21058 2546 ft 76 kts
2026-04-20 06:32 -41.49973 147.21087 2764 ft 75 kts
2026-04-20 06:33 -41.49442 147.21113 2949 ft 76 kts
2026-04-20 06:33 -41.48919 147.21132 3156 ft 76 kts
2026-04-20 06:33 -41.48400 147.21159 3368 ft 76 kts
2026-04-20 06:33 -41.47873 147.21183 3561 ft 77 kts
2026-04-20 06:34 -41.47341 147.21200 3754 ft 76 kts
2026-04-20 06:34 -41.46800 147.21149 3868 ft 85 kts 342°
2026-04-20 06:34 -41.45625 147.20538 4017 ft 92 kts 342°
2026-04-20 06:35 -41.45019 147.20258 4107 ft 92 kts 342°
2026-04-20 06:35 -41.44412 147.19966 4176 ft 93 kts 340°
2026-04-20 06:35 -41.43809 147.19635 4244 ft 94 kts 340°
2026-04-20 06:35 -41.43258 147.19408 4526 ft 76 kts 347°
2026-04-20 06:36 -41.42734 147.19288 4704 ft 73 kts 352°
2026-04-20 06:36 -41.42254 147.19178 4912 ft 69 kts 349°
2026-04-20 06:36 -41.41781 147.19093 5073 ft 69 kts 353°
2026-04-20 06:36 -41.41306 147.19004 5224 ft 70 kts 353°
2026-04-20 06:37 -41.40823 147.18975 5385 ft 68 kts 356°
2026-04-20 06:37 -41.40345 147.18954 5536 ft 68 kts 358°
2026-04-20 06:37 -41.39874 147.18930 5676 ft 69 kts 354°
2026-04-20 06:37 -41.39398 147.18861 5822 ft 70 kts 354°
2026-04-20 06:38 -41.38908 147.18878 5971 ft 69 kts 359°
2026-04-20 06:38 -41.38430 147.18899 6102 ft 71 kts
2026-04-20 06:38 -41.37946 147.18936 6265 ft 68 kts 353°
2026-04-20 06:38 -41.37463 147.18950 6412 ft 67 kts 355°
2026-04-20 06:39 -41.36998 147.18903 6553 ft 68 kts 347°
2026-04-20 06:39 -41.36545 147.18767 6698 ft 68 kts 342°
2026-04-20 06:39 -41.36100 147.18600 6829 ft 67 kts 337°
2026-04-20 06:39 -41.35658 147.18405 6957 ft 67 kts 336°
2026-04-20 06:40 -41.35222 147.18193 7076 ft 66 kts 332°
2026-04-20 06:40 -41.34780 147.17988 7167 ft 71 kts 353°
2026-04-20 06:40 -41.34299 147.17888 7309 ft 64 kts 334°
2026-04-20 06:40 -41.33900 147.17578 7418 ft 64 kts 319°
2026-04-20 06:41 -41.33540 147.17206 7517 ft 66 kts 320°
2026-04-20 06:41 -41.33155 147.16869 7624 ft 67 kts 323°
2026-04-20 06:41 -41.32763 147.16524 7736 ft 68 kts 326°
2026-04-20 06:41 -41.32351 147.16222 7843 ft 68 kts 329°
2026-04-20 06:42 -41.31921 147.15957 7956 ft 66 kts 330°
2026-04-20 06:42 -41.31492 147.15694 8042 ft 68 kts 331°
2026-04-20 06:42 -41.31049 147.15457 8117 ft 72 kts 338°
2026-04-20 06:42 -41.30572 147.15285 8229 ft 70 kts 342°
2026-04-20 06:43 -41.30074 147.15195 8296 ft 73 kts 350°
2026-04-20 06:43 -41.29566 147.15100 8371 ft 75 kts 342°
2026-04-20 06:43 -41.29105 147.14825 8473 ft 72 kts 330°
2026-04-20 06:43 -41.28632 147.14568 8552 ft 73 kts 335°
2026-04-20 06:44 -41.28157 147.14332 8632 ft 74 kts 336°
2026-04-20 06:44 -41.27682 147.14079 8716 ft 74 kts 339°
2026-04-20 06:44 -41.27172 147.13905 8783 ft 74 kts 341°
2026-04-20 06:44 -41.26673 147.13752 8836 ft 77 kts 344°
2026-04-20 06:45 -41.26128 147.13701 8907 ft 76 kts 359°
2026-04-20 06:45 -41.25582 147.13729 8944 ft 80 kts 356°
2026-04-20 06:45 -41.25003 147.13731 8928 ft 91 kts 359°
2026-04-20 06:45 -41.24348 147.13796 8941 ft 97 kts
2026-04-20 06:46 -41.23663 147.13901 8953 ft 100 kts
2026-04-20 06:46 -41.22973 147.13988 8995 ft 100 kts
2026-04-20 06:46 -41.22277 147.13994 9026 ft 99 kts 355°
2026-04-20 06:46 -41.21584 147.14032 9073 ft 96 kts
2026-04-20 06:47 -41.20945 147.14045 9164 ft 87 kts 356°
2026-04-20 06:47 -41.20346 147.14037 9238 ft 88 kts 350°
2026-04-20 06:47 -41.19768 147.13879 9360 ft 85 kts 340°
2026-04-20 06:47 -41.19206 147.13616 9444 ft 85 kts 338°
2026-04-20 06:48 -41.18635 147.13386 9509 ft 88 kts 339°
2026-04-20 06:48 -41.18022 147.13176 9533 ft 93 kts 346°
2026-04-20 06:48 -41.17358 147.13031 9536 ft 98 kts 351°
2026-04-20 06:48 -41.16672 147.13056 9507 ft 105 kts
2026-04-20 06:49 -41.15941 147.13159 9490 ft 106 kts
2026-04-20 06:49 -41.15211 147.13229 9484 ft 105 kts 360°
2026-04-20 06:49 -41.14480 147.13285 9476 ft 105 kts
2026-04-20 06:49 -41.13750 147.13342 9455 ft 105 kts 355°
2026-04-20 06:50 -41.13030 147.13232 9462 ft 104 kts 349°
2026-04-20 06:50 -41.12307 147.13153 9452 ft 105 kts 356°
2026-04-20 06:50 -41.11580 147.13084 9448 ft 104 kts 352°
2026-04-20 06:50 -41.10857 147.13009 9451 ft 104 kts 354°
2026-04-20 06:51 -41.10130 147.12982 9452 ft 104 kts 355°
2026-04-20 06:51 -41.09403 147.13011 9445 ft 105 kts
2026-04-20 06:51 -41.08675 147.13047 9449 ft 104 kts 357°
2026-04-20 06:51 -41.07967 147.12939 9434 ft 104 kts 348°
2026-04-20 06:52 -41.07256 147.12795 9435 ft 104 kts 348°
2026-04-20 06:52 -41.06541 147.12662 9432 ft 103 kts 349°
2026-04-20 06:52 -41.05820 147.12580 9421 ft 105 kts 356°
2026-04-20 06:52 -41.05103 147.12481 9420 ft 103 kts 341°
2026-04-20 06:53 -41.04401 147.12292 9412 ft 105 kts 351°
2026-04-20 06:53 -41.03682 147.12175 9436 ft 102 kts 350°
2026-04-20 06:53 -41.02972 147.12056 9420 ft 104 kts 349°
2026-04-20 06:53 -41.02251 147.11976 9440 ft 103 kts 356°
2026-04-20 06:54 -41.01531 147.12067 9427 ft 105 kts
2026-04-20 06:54 -41.00816 147.12192 9459 ft 103 kts
2026-04-20 06:54 -41.00103 147.12230 9480 ft 101 kts 354°
2026-04-20 06:54 -40.99413 147.12131 9436 ft 95 kts 349°
2026-04-20 06:55 -40.98754 147.11935 9397 ft 100 kts 343°
2026-04-20 06:55 -40.98073 147.11696 9421 ft 100 kts 342°
2026-04-20 06:55 -40.97392 147.11484 9432 ft 102 kts 345°
2026-04-20 06:55 -40.96706 147.11310 9478 ft 100 kts 347°
2026-04-20 06:56 -40.96008 147.11204 9490 ft 102 kts 356°
2026-04-20 06:56 -40.95302 147.11171 9532 ft 100 kts 354°
2026-04-20 06:56 -40.94597 147.11192 9541 ft 103 kts
2026-04-20 06:56 -40.93890 147.11258 9581 ft 101 kts
2026-04-20 06:57 -40.93190 147.11395 9615 ft 101 kts
2026-04-20 06:57 -40.92728 147.11498 9623 ft 102 kts
2026-04-20 06:57 -40.92025 147.11609 9653 ft 102 kts
2026-04-20 06:57 -40.91077 147.11608 9661 ft 101 kts 351°
2026-04-20 06:58 -40.90614 147.11554 9681 ft 101 kts 353°
2026-04-20 06:58 -40.89900 147.11590 9686 ft 103 kts
2026-04-20 06:58 -40.89187 147.11637 9651 ft 106 kts 349°
2026-04-20 06:58 -40.88450 147.11475 9603 ft 107 kts 348°
2026-04-20 06:59 -40.87717 147.11274 9554 ft 107 kts 345°
2026-04-20 06:59 -40.86984 147.11075 9514 ft 107 kts 349°
2026-04-20 06:59 -40.86238 147.11026 9469 ft 109 kts 359°
2026-04-20 06:59 -40.85250 147.10957 9439 ft 107 kts 349°
2026-04-20 07:00 -40.84753 147.10862 9420 ft 107 kts 350°
2026-04-20 07:00 -40.84029 147.10690 9406 ft 105 kts 342°
2026-04-20 07:00 -40.83359 147.10335 9408 ft 103 kts 333°
2026-04-20 07:00 -40.82709 147.09983 9394 ft 104 kts 337°
2026-04-20 07:01 -40.82034 147.09673 9426 ft 100 kts 341°
2026-04-20 07:01 -40.81357 147.09412 9419 ft 102 kts 341°
2026-04-20 07:01 -40.80678 147.09141 9423 ft 101 kts 339°
2026-04-20 07:01 -40.80048 147.08769 9459 ft 97 kts 322°
2026-04-20 07:02 -40.79554 147.08185 9505 ft 95 kts 315°
2026-04-20 07:02 -40.79078 147.07586 9573 ft 92 kts 314°
2026-04-20 07:02 -40.78593 147.07010 9557 ft 98 kts 316°
2026-04-20 07:02 -40.78102 147.06398 9602 ft 95 kts 311°
2026-04-20 07:03 -40.77642 147.05760 9632 ft 97 kts 313°
2026-04-20 07:03 -40.77129 147.05185 9653 ft 98 kts 324°
2026-04-20 07:03 -40.76612 147.04608 9680 ft 96 kts 314°
2026-04-20 07:03 -40.76141 147.03980 9704 ft 97 kts 313°
2026-04-20 07:04 -40.75724 147.03267 9693 ft 98 kts 304°
2026-04-20 07:04 -40.75383 147.02525 9763 ft 94 kts 296°
2026-04-20 07:04 -40.75069 147.01751 9755 ft 97 kts 295°
2026-04-20 07:04 -40.74814 147.00939 9806 ft 95 kts 294°
2026-04-20 07:05 -40.74450 147.00192 9798 ft 98 kts 306°
2026-04-20 07:05 -40.74039 146.99499 9853 ft 95 kts 307°
2026-04-20 07:05 -40.73610 146.98828 9872 ft 96 kts 306°
2026-04-20 07:05 -40.73182 146.98158 9904 ft 96 kts 308°
2026-04-20 07:06 -40.72743 146.97502 9980 ft 90 kts 310°
2026-04-20 07:06 -40.72344 146.96904 10041 ft 92 kts 307°
2026-04-20 07:06 -40.71934 146.96222 10053 ft 94 kts 306°
2026-04-20 07:06 -40.71548 146.95528 10080 ft 95 kts 301°
2026-04-20 07:07 -40.71211 146.94789 10136 ft 93 kts 297°
2026-04-20 07:07 -40.70921 146.94037 10200 ft 91 kts 293°
2026-04-20 07:07 -40.70600 146.93291 10201 ft 94 kts 317°
2026-04-20 07:07 -40.70041 146.92813 10189 ft 100 kts 331°
2026-04-20 07:08 -40.69399 146.92486 10246 ft 96 kts 337°
2026-04-20 07:08 -40.68781 146.92134 10253 ft 98 kts 330°
2026-04-20 07:08 -40.68160 146.91768 10275 ft 98 kts 335°
2026-04-20 07:08 -40.67541 146.91388 10316 ft 97 kts 330°
2026-04-20 07:09 -40.66927 146.91016 10354 ft 95 kts 332°
2026-04-20 07:09 -40.66351 146.90624 10414 ft 94 kts 328°
2026-04-20 07:09 -40.65777 146.90212 10472 ft 93 kts 326°
2026-04-20 07:09 -40.65248 146.89746 10510 ft 93 kts 320°
2026-04-20 07:10 -40.64745 146.89207 10540 ft 95 kts 317°
2026-04-20 07:10 -40.64232 146.88657 10575 ft 95 kts 317°
2026-04-20 07:10 -40.63727 146.88111 10627 ft 93 kts 317°
2026-04-20 07:10 -40.63229 146.87553 10662 ft 94 kts 315°
2026-04-20 07:11 -40.62770 146.86957 10711 ft 93 kts 310°
2026-04-20 07:11 -40.62286 146.86372 10744 ft 95 kts 316°